Tracking 19574 objects as of 16-Feb-2019
HD Live streaming from Space Station
objects crossing your sky now

OPS 0757 (TACSAT)

Track OPS 0757 (TACSAT) now!
OPS 0757 (TACSAT) is classified as:


NORAD ID: 3691
Int'l Code: 1969-013A
Perigee: 35,684.8 km
Apogee: 35,827.5 km
Inclination: 3.8 °
Period: 1,434.2 minutes
Semi major axis: 42127 km
RCS: 1 m2 (large)
Launch date: February 9, 1969
Source: United States (US)
Launch site: AIR FORCE EASTERN TEST RANGE (AFETR)
aabbcc
Your satellite tracking list
Your tracking list is empty




NASA's NSSDC Master Catalog

Two Line Element Set (TLE):
1  3691U 69013A   19046.40646750 -.00000173  00000-0  00000+0 0  9991
2  3691   3.7580 296.8472 0016938 281.3760  47.7980  1.00405894170550
Source of the keplerian elements: AFSPC